972  
ASUS43 KEAX 230410  
RWREAX  
 
WEATHER ROUNDUP FOR EASTERN KANSAS AND NORTHWEST MISSOURI  
NATIONAL WEATHER SERVICE KANSAS CITY/PLEASANT HILL MO  
1100 PM CDT SAT JUL 22 2017  
 
KSZ040-057-103>105-MOZ028-029-037-043-230500-   
..KANSAS CITY METROPOLITAN AREA
 
 
 
CITY SKY/WX TMP DP RH WIND PRES REMARKS
 
K.C. INTL CLOUDY 71 68 90 S9G22 29.97R THUNDER  
K.C. DOWNTOWN TSTM 72 66 81 E8 29.96F  
LEES SUMMIT TSTM 70 69 97 VRB6 30.02R FOG  
OLATHE - IXD CLOUDY 70 64 81 VRB5 29.92F THUNDER  
OLATHE - OJC TSTM 67 66 97 NE16G29 29.92F  
LAWRENCE LGT RAIN 74 69 85 CALM 29.90F  
 

 
 
MOZ001>008-011>017-020>025-030>033-038>040-044>046-053-054-230500-   
..NORTHERN AND CENTRAL MISSOURI
 
 
 
CITY SKY/WX TMP DP RH WIND PRES REMARKS
 
ST. JOSEPH CLOUDY 82 76 81 W8 29.92R  
MOSBY TSTM 72 64 78 SW29G45 29.96R  
WARRENSBURG CLOUDY 88 75 66 W13G18 29.85R THUNDER HX 97  
WHITEMAN AFB CLOUDY 88 79 74 SW7 29.83 THUNDER HX 103  
CLINTON CLOUDY 84 75 74 S3 29.84S HX 92  
SEDALIA CLOUDY 89 78 70 W3 29.85R HX 103  
WARSAW NOT AVBL  
CHILLICOTHE N/A 83 76 79 VRB6 29.87R HX 91  
KIRKSVILLE CLOUDY 81 74 79 N9 29.88R  
 

 
 
MOZ041-047>049-056>058-063>065-088>090-097-230500-   
..EASTERN AND SOUTHERN MISSOURI
 
 
 
CITY SKY/WX TMP DP RH WIND PRES REMARKS
 
ST. LOUIS INTL CLOUDY 92 72 51 SW12 29.82R THUNDER HX 99  
SPIRIT OF STL PTCLDY 77 73 87 SW3 29.80R THUNDER  
COLUMBIA MOCLDY 83 78 85 CALM 29.84R HX 93  
JEFFERSON CITY MOCLDY 87 79 76 CALM 29.82R HX 101  
ROLLA PTCLDY 83 73 72 SW7 29.87R  
OSAGE BEACH CLEAR 87 73 62 S6 29.86S HX 94  
SPRINGFIELD CLEAR 84 74 71 S8 29.90R HX 91  
BRANSON CLEAR 82 68 61 S5 29.94S  
JOPLIN CLEAR 87 74 64 S10 29.88R HX 95  
WEST PLAINS CLEAR 82 72 71 SW7 29.93S  
 

 
 
IAZ060-094-KSZ022-034>040-054-083-096-NEZ052-066-093-230500-    
..KANSAS...SOUTHEAST NEBRASKA AND IOWA
 
 
 
CITY SKY/WX TMP DP RH WIND PRES REMARKS
 
TOPEKA TSTM 74 73 97 W14G20 29.98R  
MANHATTAN RAIN 73 72 96 W6 29.96F  
EMPORIA CLOUDY 71 67 87 NE16 29.98R  
CHANUTE CLEAR 87 72 60 VRB5 29.89R HX 93  
WICHITA TSTM 76 71 85 N18G28 29.97R  
OMAHA MOCLDY 77 72 84 N9 29.90F  
LINCOLN CLOUDY 80 71 74 SW7 29.95R  
FALLS CITY CLOUDY 81 77 88 W6 29.93R  
LAMONI CLOUDY 78 73 84 N5 29.90R  
DES MOINES CLOUDY 80 74 81 W3 29.87S  
 

 
 
 
 
CLICK HERE TO GO TO PREVIOUS BULLETINS.

The Nexlab MO Page
The Nexlab KS Page Main Text Page